STARLINK-2424 (47834 NORAD) Tracking and Keplerian Element Data

This shows tracking and keplerian element data for the satellite.

Feedback or suggestion? Click here.




ElementValue
Catalog47834
NameSTARLINK-2424
Epoch Orbit1728
Epoch Day173.89056894
Epoch Year2021
RAAN56.5734
Inclination53.0562
Eccentricity0.0002232
Argument of Perigee85.4315
Mean Anonmoly274.6929
Mean Motion15.0639646
Decay Rate6.23E-06
L11 47834U 21018AZ 21173.89056894 .00000623 00000-0 60753-4 0 9997
L22 47834 53.0562 56.5734 0002232 85.4315 274.6929 15.06396460 17281

Live tracking and technical data element details for STARLINK-2424 (NORAD 47834). STARLINK-2424 can be tracked NOW for your location showing map with azimuth and elevation plus other details from your city location.

Track the satellite on the map from your city or location and see movement details for azimuth, elevation, latitude, longitude, range, height, and movement on the map or in text.







IsCatalogInMostPopularTable: catalog: 47834, numindb: 42
Update: records affected: 1



GetName: 47834 STARLINK-2424

Hit Count: updated at: Thu, 24 Jun 2021 02:26:01 GMT